Location: B?ogocice
(50.2413°N, 20.2361°E)
Time: 01:24:47
(UTC+00:00)

Daily predictions for brighter satellites

Satellite Brightness Start Highest point End
(mag) Time Altitude Azimuth Time Altitude Azimuth Time Altitude Azimuth
Cosmos 2082 3.8 00:03:45 21° SSW 00:07:36 70° ESE 00:13:13 10° NNE
Cosmos 292 Rocket 3.7 00:04:41 22° SSW 00:07:46 90° WNW 00:12:37 10° NNE
Cosmos 1544 Rocket 3.7 00:04:43 10° N 00:09:11 73° ENE 00:12:56 14° SSE
Cosmos 1869 3.1 00:05:29 10° N 00:09:12 80° E 00:11:48 19° SSE
Cosmos 2227 Rocket 2.8 00:05:20 15° SW 00:09:57 51° NW 00:15:30 10° NNE
Cosmos 1943 3.5 00:04:35 10° NNW 00:10:14 68° ENE 00:15:49 10° SE
IDEFIX/ARIANE 42P 3.2 00:05:09 10° NNE 00:10:16 49° E 00:14:28 15° S
Cosmos 990 Rocket 4.4 00:08:24 18° SW 00:12:07 54° WNW 00:17:10 10° NNE
CZ-2C R/B 4.4 00:09:57 10° NNE 00:14:55 35° E 00:19:37 10° SSE
Cosmos 2228 3.4 00:10:55 10° N 00:15:14 62° ENE 00:19:18 11° SSE
CZ-2C R/B 3.0 00:10:41 10° SSE 00:15:53 64° ENE 00:21:15 10° N
SL-12 R/B(2) 4.5 00:09:26 14° SW 00:16:48 84° NW 00:26:58 10° NE
GEOS 3 Rocket 4.2 00:11:57 10° NE 00:17:00 53° NW 00:21:57 10° WSW
CENTAUR R/B 2.7 00:12:18 15° SW 00:17:15 78° NW 00:24:38 10° NE
CZ-2D R/B 3.1 00:12:41 10° NNE 00:17:46 41° E 00:22:30 11° SSE
Meteor 1-11 4.3 00:15:36 18° S 00:20:00 90° WNW 00:25:52 10° NNE
H-2A R/B 4.2 00:17:51 10° NNW 00:20:36 17° WNW 00:23:20 10° W
Cosmos 1437 Rocket 4.5 00:18:54 10° SSE 00:22:06 26° E 00:25:17 10° NE
Cosmos 1975 Rocket 3.4 00:21:39 20° SSW 00:24:28 55° WNW 00:28:49 10° N
COBE Rocket 4.0 00:21:00 10° NNE 00:26:11 90° SE 00:30:14 17° SSW
SL-4 R/B 4.3 00:26:12 10° WSW 00:26:25 11° WSW 00:26:25 11° WSW
Cosmos 2297 Rocket 3.9 00:26:05 10° W 00:30:44 25° NW 00:35:24 10° NNE
Cosmos 2219 3.6 00:27:36 15° SW 00:32:11 59° NW 00:37:45 10° NNE
H-2A R/B 3.6 00:28:58 10° NNE 00:32:56 63° ESE 00:36:04 16° S
Cosmos 2341 Rocket 4.1 00:28:16 17° SSW 00:33:13 71° WNW 00:39:27 10° N
NPP 3.8 00:28:43 10° NNE 00:34:08 74° ESE 00:38:46 14° S
Cosmos 1455 Rocket 4.4 00:31:23 10° NNW 00:35:05 26° W 00:37:36 16° SW
Aureole 1 Rocket 3.7 00:38:34 15° WSW 00:41:18 40° WNW 00:45:38 10° NNE
ASTEX 1 4.5 00:37:30 10° SSE 00:42:05 43° ENE 00:46:42 10° N
ADEOS II 2.8 00:40:18 10° NNE 00:45:23 48° E 00:50:26 10° S
Cosmos 372 Rocket 4.2 00:42:35 16° SW 00:46:49 67° WNW 00:52:02 10° NNE
Cosmos 921 Rocket 3.7 00:42:58 10° NNW 00:47:11 55° ENE 00:51:17 10° SE
Cosmos 494 Rocket 4.4 00:41:58 10° NNW 00:47:13 68° ENE 00:52:26 10° SSE
Cosmos 1536 Rocket 3.6 00:50:03 13° S 00:54:00 87° ESE 00:58:27 10° N
Resurs 1-4 Rocket 2.1 00:52:48 10° NNE 00:58:07 89° ESE 01:03:09 11° SSW
BREEZE-M DEB (TANK) 3.8 00:57:41 10° W 00:58:59 13° WSW 00:58:59 13° WSW
Cosmos 1726 Rocket 4.4 00:55:59 10° N 01:00:20 52° ENE 01:04:39 10° SSE
Cosmos 1606 3.9 00:58:52 10° NW 01:01:49 24° W 01:04:04 14° SW
NOSS 3-2 (A) 3.7 00:56:57 10° WSW 01:02:16 62° NW 01:08:43 10° NE
Cosmos 1937 Rocket 3.8 00:58:06 13° SW 01:02:42 58° WNW 01:07:54 10° NNE
Cosmos 2263 Rocket 2.8 00:58:49 11° SW 01:03:57 49° NW 01:09:22 10° NNE
Cosmos 1898 Rocket 4.3 01:01:19 11° SW 01:05:57 42° WNW 01:10:53 10° NNE
CZ-4C R/B 4.2 01:01:51 10° WNW 01:06:24 28° NNW 01:11:57 10° NE
Cosmos 1821 Rocket 4.0 01:01:26 10° SSW 01:07:28 81° W 01:13:40 10° N
NOSS 3-2 (C) 3.3 01:03:08 13° SW 01:07:59 82° SE 01:14:22 10° NE
USA 267 4.1 01:02:30 10° ENE 01:08:30 38° SE 01:14:29 10° SSW
Orbus 7S? 3.6 01:05:56 10° WNW 01:08:36 35° SW 01:12:46 10° SSE
Cosmos 2218 Rocket 4.4 01:04:28 12° SSW 01:10:03 50° WNW 01:16:04 10° N
Meteor 1-27 4.5 01:08:10 10° NNW 01:13:53 58° W 01:19:32 10° S
Cosmos 1607 4.1 01:08:22 10° NW 01:14:51 90° NE 01:21:11 10° SE
BlueWalker 3 2.6 01:12:47 10° WNW 01:16:29 56° N 01:20:11 10° E
Cosmos 1461 3.1 01:14:31 11° SW 01:18:18 57° NW 01:22:09 10° NE
Cosmos 1812 3.6 01:14:57 10° N 01:18:26 46° ENE 01:21:52 10° SSE
AQUA 4.0 01:14:55 10° NNE 01:19:40 74° ESE 01:24:22 10° S
Cosmos 1844 Rocket 3.0 01:18:06 10° SSW 01:23:37 63° ESE 01:29:08 10° NE
UNK 4.1 01:19:09 10° SSE 01:23:43 70° ENE 01:28:18 10° N
SAR-Lupe-4 4.5 01:23:16 10° NNE 01:26:43 45° E 01:30:08 10° S
BREEZE-M DEB (TANK) 3.6 01:25:57 11° SW 01:26:47 12° SSW 01:28:06 10° S
MSX 4.2 01:21:56 10° N 01:27:30 53° WNW 01:33:01 10° SW
SL-24 DEB 4.2 01:24:25 10° N 01:28:59 81° W 01:33:33 10° S
BREEZE-M R/B 4.3 01:25:06 10° WNW 01:33:34 67° SSW 01:39:18 10° SE
ALOS 2.4 01:29:38 10° NNE 01:34:17 76° ESE 01:38:54 10° S
Cosmos 2058 Rocket 3.5 01:33:16 10° N 01:37:43 67° ENE 01:42:06 10° SSE
SL-16 R/B 2.6 01:32:06 10° S 01:38:17 63° WSW 01:44:30 10° NNW
Cosmos 2123 Rocket 4.0 01:33:53 10° NNW 01:40:06 81° W 01:46:17 10° S
Iridium 2 2.6 01:38:44 10° S 01:41:12 84° E 01:43:42 10° N
Cosmos 1892 Rocket 3.7 01:38:36 10° S 01:43:00 83° E 01:47:28 10° NNE
Cosmos 1603 4.2 01:38:30 10° NW 01:43:52 42° WSW 01:49:12 10° S
USA 234 3.4 01:39:11 10° ESE 01:45:45 85° NNE 01:52:20 10° WNW
Cosmos 1934 Rocket 4.2 01:40:24 10° S 01:46:45 89° ESE 01:53:11 10° N
